[[{"header":{"parameterUnit":"m.s-1","parameterCategory":1,"la1":30.2991,"la2":30.254,"lo1":-89.0895,"lo2":-89.0444,"dy":0.0017,"dx":0.0017,"nx":28,"ny":28,"refTime":"2024-10-07T09:00:00:Z","depth":0,"parameterNumber":2,"parameterNumberName":"U-component_of_WINDS"},"data":[0,0,0,0,0,0,0,0,0,0,0,0,0,0,0,0,0,0,0,0,0,0,0,0,0,0,0,0,0,0,0,0,0,0,0,0,0,0,0,0,0,0,0,0,0,0,0,0,0,0,0,0,0,0,0,0,0,0,-0.0187,-0.0187,0,-0.0203,-0.0203,-0.0203,-0.0208,-0.0208,-0.0208,-0.0208,-0.0224,-0.0224,-0.0225,0,0,0,0,0,0,0,0,0,0,0,0,0,-0.0158,-0.0158,-0.0187,-0.0187,-0.0187,-0.0203,-0.0203,-0.0203,-0.0208,-0.0208,-0.0208,-0.0207,-0.0223,-0.0224,-0.0225,0,0,0,0,0,0,0,0,0,0,0,0,0,-0.0172,-0.0159,-0.0187,-0.0191,-0.0192,-0.0203,-0.0203,-0.0204,-0.0208,-0.0208,-0.0208,-0.0207,-0.0223,-0.0224,-0.0225,-0.0232,0,0,-0.0227,-0.0227,0,0,0,0,0,0,0,0,-0.0171,-0.0173,-0.019,-0.0191,-0.0192,-0.0203,-0.0199,-0.0213,-0.0208,-0.0202,-0.0208,-0.0207,-0.0217,-0.0218,-0.0222,-0.0233,-0.0234,-0.0227,-0.0228,-0.0228,-0.0228,0,0,0,0,0,0,0,-0.017,-0.0172,-0.0193,-0.0191,-0.0191,-0.0192,-0.0194,-0.0202,-0.021,-0.0202,-0.0203,-0.0205,-0.0217,-0.0221,-0.0222,-0.0234,-0.0227,-0.0228,-0.0228,-0.0229,-0.0252,-0.0253,0,0,0,0,0,0,-0.0169,-0.0171,-0.0193,-0.0194,-0.0181,-0.0193,-0.0195,-0.02,-0.021,-0.0211,-0.0205,-0.0205,-0.022,-0.0221,-0.0222,-0.0232,-0.0228,-0.0229,-0.0229,-0.0252,-0.0252,-0.0253,0,0,0,0,0,0,-0.0168,-0.017,-0.0192,-0.0183,-0.0185,-0.0193,-0.0199,-0.02,-0.0204,-0.0212,-0.0213,-0.0207,-0.0219,-0.0221,-0.023,-0.0233,-0.0229,-0.023,-0.0252,-0.0252,-0.0253,-0.0252,0,0,0,0,0,0,-0.0167,-0.017,-0.0173,-0.0183,-0.0186,-0.0199,-0.0199,-0.02,-0.0205,-0.0205,-0.0214,-0.0215,-0.0219,-0.0229,-0.0231,-0.0234,-0.023,-0.0252,-0.0252,-0.0252,-0.0251,-0.0252,-0.0252,0,0,0,0,0,-0.0166,-0.0172,-0.0174,-0.0176,-0.019,-0.02,-0.0201,-0.0206,-0.0205,-0.0208,-0.0213,-0.0215,-0.0232,-0.023,-0.0232,-0.0235,-0.0252,-0.0252,-0.0252,-0.0251,-0.0252,-0.0252,0,0,0,0,0,0,-0.0163,-0.0174,-0.0175,-0.0185,-0.0191,-0.02,-0.0204,-0.0206,-0.0213,-0.0213,-0.0218,-0.022,-0.0228,-0.0233,-0.023,-0.0243,-0.0242,-0.0243,-0.024,-0.0241,-0.0241,-0.024,-0.0231,0,0,0,0,0,-0.0163,-0.017,-0.0179,-0.0187,-0.019,-0.0197,-0.0201,-0.0204,-0.0211,-0.0213,-0.0219,-0.0225,-0.0232,-0.0237,-0.0243,-0.0252,-0.0254,-0.0255,-0.0255,-0.0256,-0.0257,-0.0261,-0.0262,-0.0254,-0.0254,-0.0254,0,0,-0.0164,-0.0171,-0.0175,-0.0186,-0.0192,-0.0198,-0.0199,-0.0206,-0.0211,-0.0214,-0.0223,-0.0227,-0.0235,-0.0243,-0.0247,-0.0247,-0.0259,-0.0256,-0.0256,-0.0257,-0.0262,-0.0263,-0.0263,-0.0254,-0.0254,-0.0254,0,0,-0.017,-0.0176,-0.0182,-0.0188,-0.0196,-0.02,-0.0202,-0.0211,-0.0214,-0.0222,-0.0225,-0.0231,-0.0242,-0.0248,-0.0252,-0.0259,-0.026,-0.026,-0.0262,-0.0267,-0.0268,-0.0268,-0.0271,-0.0272,-0.0261,-0.0261,-0.0261,0,-0.017,-0.0181,-0.0186,-0.0193,-0.0198,-0.0201,-0.0208,-0.0213,-0.0223,-0.0226,-0.0225,-0.024,-0.0245,-0.0254,-0.0256,-0.0259,-0.0261,-0.026,-0.0267,-0.0268,-0.0268,-0.0271,-0.0272,-0.0261,-0.0261,-0.0261,-0.0261,0,-0.018,-0.0188,-0.0192,-0.0202,-0.0207,-0.0214,-0.022,-0.0224,-0.0227,-0.0231,-0.024,-0.0246,-0.0254,-0.0256,-0.0259,-0.0266,-0.0266,-0.0266,-0.0265,-0.0269,-0.0272,-0.0273,-0.0261,-0.0261,-0.0261,-0.0261,0,0,-0.0185,-0.0197,-0.0199,-0.0203,-0.0212,-0.0218,-0.0225,-0.0233,-0.0237,-0.0243,-0.0249,-0.0258,-0.0259,-0.0263,-0.0266,-0.027,-0.0275,-0.027,-0.027,-0.0271,-0.0284,-0.0284,-0.0285,-0.0276,-0.0276,-0.0276,-0.0283,0,-0.0191,-0.0205,-0.0209,-0.022,-0.0226,-0.0229,-0.0235,-0.0241,-0.0245,-0.0251,-0.0256,-0.0262,-0.0262,-0.0265,-0.0269,-0.0274,-0.0278,-0.0273,-0.0282,-0.0282,-0.028,-0.0286,-0.0287,-0.0293,-0.0284,-0.0285,-0.0285,0,-0.0201,-0.0208,-0.022,-0.0228,-0.0231,-0.0236,-0.0244,-0.0249,-0.0256,-0.0259,-0.0264,-0.0266,-0.0273,-0.0272,-0.0281,-0.0278,-0.0281,-0.0284,-0.0284,-0.0286,-0.0284,-0.0288,-0.0295,-0.0296,-0.0286,-0.0286,-0.0286,0,-0.0204,-0.0216,-0.0224,-0.0228,-0.0237,-0.0241,-0.0245,-0.0252,-0.0256,-0.0263,-0.0266,-0.0273,-0.0276,-0.0282,-0.0286,-0.0284,-0.0295,-0.0294,-0.0297,-0.0297,-0.03,-0.03,-0.0308,-0.0302,-0.0302,-0.0302,-0.0302,0,-0.0211,-0.0218,-0.0225,-0.023,-0.0238,-0.0243,-0.025,-0.0254,-0.026,-0.0266,-0.0269,-0.0274,-0.0279,-0.0285,-0.0288,-0.0296,-0.0297,-0.03,-0.03,-0.03,-0.0299,-0.0302,-0.0302,-0.0302,-0.0302,-0.0302,-0.0302,0,-0.0215,-0.022,-0.023,-0.0238,-0.024,-0.0246,-0.0253,-0.0258,-0.0261,-0.0269,-0.0271,-0.0277,-0.0284,-0.0289,-0.0297,-0.03,-0.0308,-0.0308,-0.0306,-0.0306,-0.031,-0.031,-0.032,-0.0322,-0.0314,-0.0314,-0.0314,0,-0.022,-0.0225,-0.0234,-0.0238,-0.0242,-0.0249,-0.0254,-0.0259,-0.0263,-0.0271,-0.0275,-0.0282,-0.0288,-0.0299,-0.0304,-0.0311,-0.0312,-0.0315,-0.0313,-0.0312,-0.0312,-0.0312,-0.0313,-0.0316,-0.0316,-0.0316,-0.0316,0,-0.0227,-0.0229,-0.0236,-0.0244,-0.0249,-0.0255,-0.0261,-0.0265,-0.027,-0.0275,-0.0283,-0.0287,-0.0296,-0.0304,-0.0311,-0.0315,-0.0316,-0.0317,-0.0318,-0.0317,-0.0316,-0.0317,-0.0307,-0.0316,-0.0316,-0.0316,-0.0316,-0.0316,-0.0232,-0.0237,-0.0244,-0.0251,-0.0256,-0.0262,-0.0267,-0.0272,-0.0278,-0.0286,-0.0288,-0.0296,-0.0302,-0.0312,-0.0316,-0.0322,-0.0321,-0.0323,-0.0324,-0.0324,-0.0324,-0.0314,-0.0323,-0.0323,-0.0323,-0.0323,-0.0323,0,-0.024,-0.0244,-0.0251,-0.026,-0.0265,-0.0267,-0.0273,-0.0278,-0.0285,-0.029,-0.0296,-0.0305,-0.0312,-0.0317,-0.0324,-0.0328,-0.0329,-0.0329,-0.0329,-0.033,-0.0324,-0.0322,-0.0328,-0.0328,-0.0328,-0.0328,-0.0328,-0.0328,-0.0245,-0.0253,-0.0256,-0.0267,-0.0272,-0.0279,-0.0283,-0.0288,-0.0293,-0.0302,-0.0308,-0.0312,-0.0317,-0.0325,-0.0331,-0.0332,-0.0335,-0.0335,-0.0337,-0.0331,-0.0331,-0.033,-0.0329,-0.0336,-0.0336,-0.0343,-0.0343,-0.0343]},{"header":{"parameterUnit":"m.s-1","parameterCategory":1,"la1":30.2991,"la2":30.254,"lo1":-89.0895,"lo2":-89.0444,"dy":0.0017,"dx":0.0017,"nx":28,"ny":28,"refTime":"2024-10-07T09:00:00:Z","depth":0,"parameterNumber":3,"parameterNumberName":"V-component_of_WINDS"},"data":[0,0,0,0,0,0,0,0,0,0,0,0,0,0,0,0,0,0,0,0,0,0,0,0,0,0,0,0,0,0,0,0,0,0,0,0,0,0,0,0,0,0,0,0,0,0,0,0,0,0,0,0,0,0,0,0,0,0,-3.5192,-3.5192,0,-3.5227,-3.5228,-3.5228,-3.521,-3.5209,-3.5208,-3.5207,-3.5241,-3.5242,-3.5244,0,0,0,0,0,0,0,0,0,0,0,0,0,-3.5106,-3.5108,-3.5191,-3.5192,-3.5192,-3.5227,-3.5228,-3.5228,-3.521,-3.5209,-3.5208,-3.5207,-3.524,-3.5242,-3.5244,0,0,0,0,0,0,0,0,0,0,0,0,0,-3.5142,-3.5108,-3.5191,-3.5188,-3.5188,-3.5227,-3.5228,-3.5228,-3.5211,-3.5209,-3.5208,-3.5207,-3.5239,-3.5242,-3.5244,-3.5288,0,0,-3.5252,-3.5254,0,0,0,0,0,0,0,0,-3.514,-3.5146,-3.5188,-3.5188,-3.5188,-3.5213,-3.521,-3.5248,-3.5211,-3.5202,-3.5207,-3.5206,-3.5232,-3.5235,-3.5245,-3.529,-3.5291,-3.5253,-3.5254,-3.5255,-3.5256,0,0,0,0,0,0,0,-3.5138,-3.5144,-3.5206,-3.5188,-3.5189,-3.5184,-3.5187,-3.5217,-3.5224,-3.5203,-3.5201,-3.5206,-3.5232,-3.5243,-3.5246,-3.5292,-3.5253,-3.5255,-3.5257,-3.5258,-3.5378,-3.5379,0,0,0,0,0,0,-3.5136,-3.5142,-3.5204,-3.5207,-3.5161,-3.5187,-3.5191,-3.5206,-3.5224,-3.5225,-3.5207,-3.5205,-3.5239,-3.5243,-3.5247,-3.5302,-3.5255,-3.5258,-3.5259,-3.5376,-3.5378,-3.538,0,0,0,0,0,0,-3.5134,-3.5142,-3.5203,-3.5174,-3.5182,-3.5189,-3.5207,-3.5208,-3.5218,-3.5228,-3.5228,-3.5217,-3.5238,-3.5243,-3.5279,-3.5303,-3.5259,-3.5261,-3.5374,-3.5377,-3.5379,-3.5411,0,0,0,0,0,0,-3.5132,-3.5141,-3.5158,-3.5175,-3.5183,-3.5235,-3.5209,-3.521,-3.5223,-3.5221,-3.5237,-3.5238,-3.5237,-3.5275,-3.5282,-3.5306,-3.5263,-3.5372,-3.5376,-3.5378,-3.5408,-3.5415,-3.542,0,0,0,0,0,-3.5129,-3.5164,-3.5159,-3.5167,-3.5205,-3.5237,-3.5242,-3.5241,-3.5225,-3.5243,-3.5249,-3.5237,-3.5299,-3.5279,-3.5286,-3.5311,-3.5371,-3.5375,-3.5378,-3.5406,-3.5413,-3.542,0,0,0,0,0,0,-3.5148,-3.5166,-3.5161,-3.5203,-3.5219,-3.5234,-3.5255,-3.5249,-3.5268,-3.5265,-3.5262,-3.5266,-3.5304,-3.5311,-3.5289,-3.5356,-3.5332,-3.5338,-3.5351,-3.5358,-3.5364,-3.5362,-3.5266,0,0,0,0,0,-3.5157,-3.5183,-3.5197,-3.5232,-3.5241,-3.5247,-3.5261,-3.5259,-3.5275,-3.5281,-3.529,-3.5305,-3.5328,-3.5343,-3.5365,-3.5409,-3.5413,-3.543,-3.5435,-3.544,-3.5445,-3.5472,-3.548,-3.5392,-3.5392,-3.5392,0,0,-3.5176,-3.519,-3.5205,-3.5237,-3.5249,-3.5276,-3.5253,-3.528,-3.53,-3.5285,-3.5321,-3.5328,-3.5345,-3.5386,-3.5405,-3.5393,-3.5471,-3.5445,-3.5449,-3.5451,-3.5477,-3.5485,-3.5492,-3.5395,-3.5394,-3.5394,0,0,-3.5226,-3.5237,-3.527,-3.5284,-3.5303,-3.5308,-3.5315,-3.5332,-3.5337,-3.5373,-3.5364,-3.5386,-3.5425,-3.5439,-3.545,-3.5508,-3.5499,-3.5515,-3.5546,-3.5572,-3.5579,-3.5585,-3.5608,-3.5616,-3.5519,-3.5519,-3.5519,0,-3.5247,-3.5287,-3.5287,-3.5318,-3.5333,-3.5322,-3.5356,-3.5368,-3.5393,-3.5404,-3.539,-3.5441,-3.5451,-3.5497,-3.5512,-3.5521,-3.5531,-3.5513,-3.5578,-3.5584,-3.559,-3.5612,-3.562,-3.5521,-3.5521,-3.5521,-3.5521,0,-3.5314,-3.5342,-3.5366,-3.5393,-3.5411,-3.5442,-3.5447,-3.5464,-3.5462,-3.5468,-3.5506,-3.5518,-3.5543,-3.5553,-3.555,-3.56,-3.5592,-3.5578,-3.5555,-3.5601,-3.5621,-3.5629,-3.5524,-3.5523,-3.5523,-3.5522,0,0,-3.5375,-3.5405,-3.5413,-3.5427,-3.5449,-3.5471,-3.5502,-3.5529,-3.5545,-3.5563,-3.559,-3.5625,-3.5614,-3.5627,-3.5625,-3.5648,-3.5696,-3.5632,-3.5632,-3.5645,-3.5754,-3.5766,-3.5776,-3.569,-3.5691,-3.5693,-3.5754,0,-3.5428,-3.5485,-3.5488,-3.554,-3.5567,-3.5559,-3.5587,-3.5603,-3.561,-3.5634,-3.564,-3.5666,-3.5647,-3.5656,-3.5678,-3.5686,-3.5718,-3.5681,-3.5716,-3.5717,-3.5715,-3.5786,-3.5798,-3.5856,-3.5762,-3.5763,-3.5764,0,-3.5497,-3.552,-3.5576,-3.5598,-3.5609,-3.5634,-3.5661,-3.5683,-3.5702,-3.5705,-3.5722,-3.5718,-3.5751,-3.5725,-3.5771,-3.5746,-3.576,-3.5766,-3.5768,-3.5773,-3.5745,-3.5795,-3.5873,-3.5883,-3.5776,-3.5775,-3.5774,0,-3.554,-3.5585,-3.5625,-3.5637,-3.5662,-3.568,-3.5691,-3.5709,-3.5726,-3.5748,-3.5759,-3.5784,-3.5798,-3.5818,-3.582,-3.5801,-3.5868,-3.5841,-3.5872,-3.5872,-3.5888,-3.5887,-3.5972,-3.5893,-3.5893,-3.5893,-3.5893,0,-3.56,-3.5635,-3.5645,-3.567,-3.571,-3.5712,-3.5751,-3.576,-3.5777,-3.5803,-3.5796,-3.5821,-3.5822,-3.5848,-3.5849,-3.5889,-3.5894,-3.5899,-3.5899,-3.5901,-3.5901,-3.5911,-3.5908,-3.5895,-3.5895,-3.5894,-3.5894,0,-3.5655,-3.5663,-3.5707,-3.5728,-3.5734,-3.5763,-3.5781,-3.5805,-3.5811,-3.5845,-3.5853,-3.5863,-3.5893,-3.5898,-3.5932,-3.5933,-3.5982,-3.5977,-3.5976,-3.5976,-3.6008,-3.6006,-3.6104,-3.6118,-3.6028,-3.6029,-3.603,0,-3.5694,-3.5721,-3.5746,-3.5765,-3.5778,-3.5807,-3.5825,-3.5828,-3.5847,-3.5873,-3.5894,-3.5924,-3.5949,-3.5997,-3.6007,-3.6034,-3.6031,-3.6064,-3.6035,-3.6037,-3.6035,-3.6034,-3.6038,-3.607,-3.6071,-3.6071,-3.6072,0,-3.5763,-3.5766,-3.5793,-3.5823,-3.5846,-3.5869,-3.589,-3.5905,-3.5911,-3.5933,-3.5965,-3.5984,-3.6021,-3.6052,-3.6079,-3.6089,-3.6083,-3.6081,-3.609,-3.6093,-3.6093,-3.6096,-3.5994,-3.6079,-3.6078,-3.6078,-3.6077,-3.6077,-3.5812,-3.5838,-3.5861,-3.5892,-3.591,-3.5931,-3.5956,-3.5967,-3.5994,-3.6026,-3.6025,-3.6061,-3.6081,-3.6118,-3.613,-3.6158,-3.6148,-3.616,-3.6163,-3.6167,-3.6172,-3.6087,-3.6163,-3.6163,-3.6162,-3.6162,-3.6162,0,-3.5884,-3.5899,-3.5928,-3.596,-3.5985,-3.5978,-3.6002,-3.6023,-3.6056,-3.6076,-3.6101,-3.6139,-3.6169,-3.6182,-3.6212,-3.6232,-3.6229,-3.6239,-3.6239,-3.6242,-3.6178,-3.6169,-3.6241,-3.6241,-3.6241,-3.6241,-3.6241,-3.6241,-3.5924,-3.5968,-3.5974,-3.6027,-3.6041,-3.6078,-3.6093,-3.6113,-3.6129,-3.6173,-3.6199,-3.6208,-3.6226,-3.6257,-3.6285,-3.6288,-3.63,-3.6312,-3.6314,-3.6254,-3.6246,-3.6239,-3.623,-3.6314,-3.6314,-3.6376,-3.6377,-3.6377]}]]